Location: Chandolas
(44.4033°N, 4.2533°E)
Time: 02:55:49
(UTC+00:00)

ALOS - Pass Details

Date: 15 November 2019
Orbit: 683 x 685 km, 97.8° (Epoch: 11 December)

Event Time Altitude Azimuth Distance (km) Brightness Sun altitude
Rises 05:21:56 0° 11° (N) 3,058 5.6 -13.7°
Reaches altitude 10° 05:24:12 10° 10° (N) 2,138 4.8 -13.3°
Maximum altitude 05:28:52 76° 285° (WNW) 710 2.2 -12.5°
Drops below altitude 10° 05:33:30 10° 200° (SSW) 2,122 4.7 -11.7°
Sets 05:35:44 0° 199° (SSW) 3,034 5.6 -11.3°
